Overview Statistics Trail Chart Weather Telemetry Raw packets
 

This is the latest recevied weather packets stored in our database for station/object HP1MRA-15. If no packets are shown the sender has not sent any weather packets the latest 10 day(s).

<< 3 4 5 6 7 8 9 >>
Time Temp. Humidity Pressure Rain* Wind** Luminosity Snow
1788628716 33.33° C 68% 1001.2 hPa 0 mm - - -
1788628415 33.33° C 68% 1001.3 hPa 0 mm - - -
1788628114 33.89° C 68% 1001.4 hPa 0 mm - - -
1788627813 33.89° C 68% 1001.4 hPa 0 mm - - -
1788627297 33.33° C 68% 1001.5 hPa 0 mm - - -
1788626996 33.33° C 69% 1001.5 hPa 0 mm - - -
1788626696 32.78° C 68% 1001.6 hPa 0 mm - - -
1788626396 32.78° C 68% 1001.6 hPa 0 mm - - -
1788626094 32.78° C 69% 1001.6 hPa 0 mm - - -
1788625795 32.78° C 69% 1001.5 hPa 0 mm - - -
1788625494 32.78° C 69% 1001.7 hPa 0 mm - - -
1788625193 32.78° C 68% 1001.7 hPa 0 mm - - -
1788624892 - - 1001.7 hPa 0 mm - - -
1788624413 32.78° C 69% 1001.8 hPa 0 mm - - -
1788624112 32.78° C 68% 1001.8 hPa 0 mm - - -
1788623811 32.78° C 68% 1001.7 hPa 0 mm - - -
1788623511 33.33° C 68% 1001.6 hPa 0 mm - - -
1788623210 33.89° C 68% 1001.8 hPa 0 mm - - -
1788622909 33.89° C 68% 1001.8 hPa 0 mm - - -
1788622520 34.44° C 67% 1001.8 hPa 0 mm - - -
1788622219 34.44° C 67% 1001.7 hPa 0 mm - - -
1788621919 35.56° C 67% 1001.8 hPa 0 mm - - -
1788621619 35.56° C 69% 1001.8 hPa 0 mm - - -
1788621319 35.56° C 68% 1001.8 hPa 0 mm - - -
1788621018 35.56° C 69% 1001.8 hPa 0 mm - - -

* Rain latest hour (hover to see other rain measurements)
** Current wind speed in m/s (hover to see current wind gust speed)